Location: Unspecified
(41.9031°N, 12.4386°E)
Time: 03:25:09
(UTC+02:00)

ISS - Pass Details

Date: 07 July 2020
Orbit: 417 x 421 km, 51.6° (Epoch: 08 July)

Event Time Altitude Azimuth Distance (km) Brightness Sun altitude
Exits shadow 04:10:39 - 291° (WNW) 2,271 -0.2 -13.9°
Reaches altitude 10° 04:13:04 10° 312° (NW) 1,497 -0.9 -13.6°
Maximum altitude 04:15:17 16° 353° (N) 1,174 -1.0 -13.3°
Drops below altitude 10° 04:17:30 10° 35° (NE) 1,498 0.5 -13.0°
Sets 04:20:11 0° 57° (ENE) 2,363 1.8 -12.7°
